Location: Altoona
(40.5167°N, 78.4000°W)
Time: 18:23:03
(UTC-04:00)

CENTAUR R/B - Pass Details

Date: 21 August 2017
Orbit: 824 x 1365 km, 63.5° (Epoch: 10 September)

Event Time Altitude Azimuth Distance (km) Brightness Sun altitude
Rises 22:30:13 0° 328° (NNW) 4,040 7.0 -25.1°
Reaches altitude 10° 22:33:20 10° 340° (NNW) 3,158 6.0 -25.5°
Maximum altitude 22:39:53 29° 38° (NE) 2,185 4.3 -26.4°
Enters shadow 22:43:21 22° 75° (ENE) 2,562 4.4 -26.9°
